sat.trackr.live / text

‹ back to catalog

STARLINK-30711

NORAD 57940 · 2023-148F

PAYLOAD ACTIVE UNKNOWN

§ Identity

Operator
Country
US
Launch date
2023-09-25
Launch site
AFWTR
Launch vehicle
Mass (kg)
RCS (m²)

Purposes: comms

External: N2YO · Heavens-Above · Gunter

§ Orbital elements

Epoch: 2026-05-24T22:40:09.443136Z

Period
94.11 min
Inclination
53.1615°
Eccentricity
0.0001388
Mean motion
15.30188820 rev/d
Perigee alt
474.3 km
Apogee alt
476.2 km
Semi-major
6,853.4 km
B*
5.7526e-5
RAAN
30.2708°
Arg perigee
90.0340°
Mean anomaly
270.0820°
Rev number
15,009

§ Raw data

STARLINK-307111 57940U 23148F   26144.94455374  .00001344  00000+0  57526-4 0  99912 57940  53.1615  30.2708 0001388  90.0340 270.0820 15.30188820150094

JSON: /api/v1/satellites/57940 · /tle

For live sub-satellite position, see the globe view (requires WebGL).

§ Visibility from observer

Set your observer location to see the next 7 days of passes ≥ 10°. The values pass through the URL so the page stays shareable.

No JS? Fill the form by hand. The geolocation button needs JavaScript.